Latest Coastal Weather Observations for Gunn Point

IDD60701

Issued at 1:31 pm CST Sunday 20 August 2017 (issued every 10 minutes, with the page automatically refreshed every 10 minutes)

About coastal observations | Map of coastal stations | Coastal observations for NT | Marine services | Other Formats
Station Details ID: 014023 Name: GUNN POINT Lat: -12.25 Lon: 131.04 Height: 25.0 m
Data from the previous 72 hours. | See also: Recent months for locations in Northern Territory
Date/Time
CST
Temp
°C
Wind Pressure Rain since
9am
mm
Weather Cloud Vis
km
Sea
Height
m
Swell
Dir  Spd
kts
Gust
kts
hPa Trend Height
m
Period
s
Dir
20/01:30pm 32.2 CALM 0 0 1012.2 - - - - - - - - -
20/01:00pm 32.3 - - - 1012.9 - - - - - - - - -
20/12:30pm 32.0 - - - 1013.1 - - - - - - - - -
20/12:00pm 32.2 - - - 1013.5 - - - - - - - - -
20/11:30am 31.9 - - - 1014.1 - - - - - - - - -
20/11:00am 31.1 - - - 1014.7 - - - - - - - - -
20/10:30am 29.9 - - - 1014.7 - - - - - - - - -
20/10:00am 29.1 - - - 1015.1 - - - - - - - - -
20/09:30am 28.6 - - - 1014.9 - - - - - - - - -
20/09:00am 27.4 - - - 1014.8 - 0.0 - - - - - - -
20/08:30am 25.5 - - - 1014.6 - - - - - - - - -
20/08:00am 23.4 - - - 1014.6 - - - - - - - - -
20/07:30am 19.8 - - - 1013.9 - - - - - - - - -
20/07:00am 18.9 - - - 1013.6 - - - - - - - - -
20/06:30am 19.4 - - - 1013.3 - - - - - - - - -
20/06:00am 19.7 - - - 1013.0 - - - - - - - - -
20/05:30am 20.1 - - - 1012.6 - - - - - - - - -
20/05:00am 20.4 - - - 1012.9 - - - - - - - - -
20/04:30am 20.6 - - - 1012.7 - - - - - - - - -
20/04:00am 21.1 - - - 1013.0 - - - - - - - - -
20/03:30am 21.5 - - - 1012.8 - - - - - - - - -
20/03:00am 22.4 - - - 1012.9 - 0.0 - - - - - - -
20/02:30am 22.8 - - - 1013.1 - - - - - - - - -
20/02:00am 21.9 - - - 1013.3 - - - - - - - - -
20/01:30am 21.7 - - - 1013.3 - - - - - - - - -
20/01:00am 22.1 - - - 1013.7 - - - - - - - - -
20/12:30am 22.5 - - - 1013.6 - - - - - - - - -
20/12:00am 23.6 - - - 1013.6 - - - - - - - - -
 
Date/Time
CST
Temp
°C
Wind Pressure Rain since
9am
mm
Weather Cloud Vis
km
Sea
Height
m
Swell
Dir  Spd
kts
Gust
kts
hPa Trend Height
m
Period
s
Dir
19/11:30pm 23.2 - - - 1013.7 - - - - - - - - -
19/11:00pm 21.7 - - - 1013.8 - - - - - - - - -
19/10:30pm 21.6 - - - 1013.6 - - - - - - - - -
19/10:00pm 21.8 - - - 1013.6 - - - - - - - - -
19/09:30pm 21.9 - - - 1013.2 - - - - - - - - -
19/09:00pm 22.3 - - - 1012.8 - 0.0 - - - - - - -
19/08:30pm 23.1 - - - 1012.5 - - - - - - - - -
19/08:00pm 23.9 - - - 1012.1 - - - - - - - - -
19/07:30pm 25.3 - - - 1011.4 - - - - - - - - -
19/07:00pm 26.5 - - - 1011.1 - - - - - - - - -
19/06:30pm 28.2 - - - 1010.7 - - - - - - - - -
19/06:00pm 29.5 - - - 1010.3 - - - - - - - - -
19/05:30pm 30.5 - - - 1010.2 - - - - - - - - -
19/05:00pm 30.7 - - - 1010.4 - - - - - - - - -
19/04:30pm 30.3 - - - 1010.3 - - - - - - - - -
19/04:00pm 31.2 - - - 1010.6 - - - - - - - - -
19/03:30pm 31.2 - - - 1010.5 - - - - - - - - -
19/03:00pm 31.9 - - - 1010.6 - 0.0 - - - - - - -
19/02:30pm 32.8 - - - 1011.2 - - - - - - - - -
19/02:00pm 33.1 - - - 1011.9 - - - - - - - - -
19/01:30pm 30.8 - - - 1012.3 - - - - - - - - -
19/01:00pm 33.2 - - - 1013.0 - - - - - - - - -
19/12:30pm 33.5 - - - 1013.5 - - - - - - - - -
19/12:00pm 32.8 - - - 1014.1 - - - - - - - - -
19/11:30am 32.1 - - - 1014.8 - - - - - - - - -
19/11:00am 32.2 - - - 1015.4 - - - - - - - - -
19/10:30am 30.3 - - - 1015.4 - - - - - - - - -
19/10:00am 29.3 - - - 1015.6 - - - - - - - - -
19/09:30am 28.2 - - - 1015.2 - - - - - - - - -
19/09:00am 27.6 - - - 1015.0 - 0.0 - - - - - - -
19/08:30am 25.7 - - - 1014.6 - - - - - - - - -
19/08:00am 22.3 - - - 1014.7 - - - - - - - - -
19/07:30am 19.2 - - - 1014.2 - - - - - - - - -
19/07:00am 18.3 - - - 1014.1 - - - - - - - - -
19/06:30am 18.7 - - - 1013.7 - - - - - - - - -
19/06:00am 18.7 - - - 1013.5 - - - - - - - - -
19/05:30am 18.8 - - - 1013.2 - - - - - - - - -
19/05:00am 18.9 - - - 1013.1 - - - - - - - - -
19/04:30am 19.3 - - - 1013.0 - - - - - - - - -
19/04:00am 19.5 - - - 1013.1 - - - - - - - - -
19/03:30am 19.7 - - - 1013.1 - - - - - - - - -
19/03:00am 19.9 - - - 1013.2 - 0.0 - - - - - - -
19/02:30am 20.6 - - - 1013.4 - - - - - - - - -
19/02:00am 20.6 - - - 1013.8 - - - - - - - - -
19/01:30am 20.6 - - - 1013.8 - - - - - - - - -
19/01:00am 21.0 - - - 1014.0 - - - - - - - - -
19/12:30am 21.4 - - - 1013.9 - - - - - - - - -
19/12:00am 21.6 - - - 1014.0 - - - - - - - - -
 
Date/Time
CST
Temp
°C
Wind Pressure Rain since
9am
mm
Weather Cloud Vis
km
Sea
Height
m
Swell
Dir  Spd
kts
Gust
kts
hPa Trend Height
m
Period
s
Dir
18/11:30pm 22.4 - - - 1014.0 - - - - - - - - -
18/11:00pm 22.9 - - - 1014.1 - - - - - - - - -
18/10:30pm 23.9 - - - 1013.7 - - - - - - - - -
18/10:00pm 25.3 - - - 1013.5 - - - - - - - - -
18/09:30pm 25.7 - - - 1012.8 - - - - - - - - -
18/09:00pm 25.6 - - - 1012.6 - 0.0 - - - - - - -
18/08:30pm 26.1 - - - 1012.2 - - - - - - - - -
18/08:00pm 26.3 - - - 1011.8 - - - - - - - - -
18/07:30pm 26.6 - - - 1011.4 - - - - - - - - -
18/07:00pm 26.9 - - - 1011.4 - - - - - - - - -
18/06:30pm 27.3 - - - 1010.7 - - - - - - - - -
18/06:00pm 27.9 - - - 1010.4 - - - - - - - - -
18/05:30pm 28.6 - - - 1010.2 - - - - - - - - -
18/05:00pm 29.3 - - - 1010.2 - - - - - - - - -
18/04:30pm 30.0 - - - 1010.0 - - - - - - - - -
18/04:00pm 29.8 - - - 1010.1 - - - - - - - - -
18/03:30pm 29.7 - - - 1010.0 - - - - - - - - -
18/03:00pm 30.5 - - - 1010.2 - 0.0 - - - - - - -
18/02:30pm 30.9 - - - 1010.4 - - - - - - - - -
18/02:00pm 31.9 - - - 1010.9 - - - - - - - - -
18/01:30pm 32.7 - - - 1011.3 - - - - - - - - -
18/01:00pm 32.4 - - - 1012.0 - - - - - - - - -
18/12:30pm 31.6 - - - 1012.2 - - - - - - - - -
18/12:00pm 30.8 - - - 1012.8 - - - - - - - - -
18/11:30am 30.6 - - - 1013.3 - - - - - - - - -
18/11:00am 30.1 - - - 1014.0 - - - - - - - - -
18/10:30am 29.8 - - - 1014.1 - - - - - - - - -
18/10:00am 28.8 - - - 1014.2 - - - - - - - - -
18/09:30am 28.4 - - - 1014.0 - - - - - - - - -
18/09:00am 27.2 - - - 1014.0 - 0.0 - - - - - - -
18/08:30am 26.8 - - - 1013.9 - - - - - - - - -
18/08:00am 24.5 - - - 1013.9 - - - - - - - - -
18/07:30am 22.4 - - - 1013.3 - - - - - - - - -
18/07:00am 22.0 - - - 1013.2 - - - - - - - - -
18/06:30am 22.0 - - - 1012.5 - - - - - - - - -
18/06:00am 22.2 - - - 1012.1 - - - - - - - - -
18/05:30am 22.3 - - - 1011.8 - - - - - - - - -
18/05:00am 23.5 - - - 1011.6 - - - - - - - - -
18/04:30am 23.9 - - - 1011.2 - - - - - - - - -
18/04:00am 23.4 - - - 1011.2 - - - - - - - - -
18/03:30am 24.3 - - - 1011.0 - - - - - - - - -
18/03:00am 24.1 - - - 1011.2 - 0.0 - - - - - - -
18/02:30am 24.4 - - - 1011.2 - - - - - - - - -
18/02:00am 24.2 - - - 1011.6 - - - - - - - - -
18/01:30am 24.6 - - - 1011.6 - - - - - - - - -
18/01:00am 25.3 - - - 1011.9 - - - - - - - - -
18/12:30am 25.9 - - - 1011.9 - - - - - - - - -
18/12:00am 26.0 - - - 1011.8 - - - - - - - - -
 
Date/Time
CST
Temp
°C
Wind Pressure Rain since
9am
mm
Weather Cloud Vis
km
Sea
Height
m
Swell
Dir  Spd
kts
Gust
kts
hPa Trend Height
m
Period
s
Dir
17/11:30pm 25.9 - - - 1011.9 - - - - - - - - -
17/11:00pm 25.7 - - - 1012.1 - - - - - - - - -
17/10:30pm 25.4 - - - 1011.9 - - - - - - - - -
17/10:00pm 24.9 - - - 1011.9 - - - - - - - - -
17/09:30pm 24.7 - - - 1011.5 - - - - - - - - -
17/09:00pm 23.5 - - - 1011.0 - 0.0 - - - - - - -
17/08:30pm 23.9 - - - 1010.5 - - - - - - - - -
17/08:00pm 24.3 - - - 1010.3 - - - - - - - - -
17/07:30pm 25.2 - - - 1009.6 - - - - - - - - -
17/07:00pm 26.0 - - - 1009.6 - - - - - - - - -
17/06:30pm 27.4 - - - 1009.2 - - - - - - - - -
17/06:00pm 28.1 - - - 1009.1 - - - - - - - - -
17/05:30pm 28.4 - - - 1009.0 - - - - - - - - -
17/05:00pm 29.4 - - - 1009.2 - - - - - - - - -
17/04:30pm 29.7 - - - 1009.0 - - - - - - - - -
17/04:00pm 30.8 - - - 1009.1 - - - - - - - - -
17/03:30pm 30.7 - - - 1009.0 - - - - - - - - -
17/03:00pm 30.8 - - - 1009.2 - 0.0 - - - - - - -
17/02:30pm 30.0 - - - 1009.7 - - - - - - - - -
17/02:00pm 29.6 - - - 1010.2 - - - - - - - - -

Other Formats:

Comma delimited format used in spreadsheet applications
http://www.bom.gov.au/fwo/IDD60701/IDD60701.99501.axf

JavaScript Object Notation format (JSON) in row-major order
http://www.bom.gov.au/fwo/IDD60701/IDD60701.99501.json